When you browse on this site, cookies collect data to enhance your experience and personalize the content and advertising you see.
Visit our Privacy Policy to learn more. By continuing to use the site, you agree to this use of cookies and data.

Hourly Weather Lankaran

Today, 11 July, Saturday

Time Temperature Precipitation Wind Pressure Humidity
00:00 +14°C° 0 mm 1 mps 634 mmHg 71%
01:00 +14°C° 0.1 mm 1 mps 634 mmHg 72%
02:00 +14°C° 0.1 mm 1 mps 634 mmHg 73%
03:00 +14°C° 0 mm 1 mps 634 mmHg 76%
04:00 +14°C° 0.2 mm 1 mps 634 mmHg 75%
05:00 +15°C° 0.2 mm 1 mps 634 mmHg 73%
06:00 +15°C° 0.2 mm 2 mps 635 mmHg 72%
07:00 +17°C° 0.1 mm 2 mps 635 mmHg 66%
08:00 +18°C° 0.1 mm 3 mps 635 mmHg 61%
09:00 +19°C° 0.1 mm 4 mps 636 mmHg 55%
10:00 +20°C° 0 mm 4 mps 636 mmHg 52%
11:00 +21°C° 0 mm 5 mps 636 mmHg 48%
12:00 +22°C° 0 mm 5 mps 636 mmHg 45%
13:00 +22°C° 0 mm 5 mps 636 mmHg 46%
14:00 +22°C° 0 mm 5 mps 635 mmHg 47%
15:00 +21°C° 0 mm 5 mps 635 mmHg 49%
16:00 +20°C° 0 mm 4 mps 634 mmHg 53%
17:00 +19°C° 0 mm 3 mps 634 mmHg 57%
18:00 +18°C° 0 mm 3 mps 634 mmHg 61%
19:00 +17°C° 0 mm 2 mps 634 mmHg 65%
20:00 +16°C° 0 mm 2 mps 633 mmHg 69%
21:00 +15°C° 0 mm 2 mps 633 mmHg 73%
22:00 +15°C° 0 mm 1 mps 633 mmHg 70%
23:00 +15°C° 0 mm 1 mps 633 mmHg 68%

Tomorrow, 12 July, Sunday

Time Temperature Precipitation Wind Pressure Humidity
00:00 +15°C° 0 mm 1 mps 633 mmHg 65%
01:00 +15°C° 0 mm 1 mps 632 mmHg 66%
02:00 +15°C° 0 mm 1 mps 632 mmHg 66%
03:00 +14°C° 0 mm 1 mps 632 mmHg 67%
04:00 +15°C° 0.1 mm 1 mps 632 mmHg 67%
05:00 +15°C° 0.1 mm 1 mps 632 mmHg 67%
06:00 +15°C° 0.1 mm 0 mps 632 mmHg 67%
07:00 +18°C° 0.3 mm 1 mps 633 mmHg 65%
08:00 +19°C° 0.3 mm 1 mps 633 mmHg 63%
09:00 +19°C° 0.3 mm 2 mps 633 mmHg 61%
10:00 +20°C° 0.1 mm 3 mps 633 mmHg 58%
11:00 +21°C° 0.1 mm 3 mps 633 mmHg 56%
12:00 +22°C° 0.1 mm 4 mps 633 mmHg 53%
13:00 +22°C° 0.2 mm 4 mps 633 mmHg 52%
14:00 +22°C° 0.2 mm 4 mps 633 mmHg 50%
15:00 +23°C° 0.2 mm 4 mps 633 mmHg 49%
16:00 +22°C° 0 mm 4 mps 632 mmHg 53%
17:00 +21°C° 0 mm 3 mps 631 mmHg 58%
18:00 +20°C° 0 mm 3 mps 631 mmHg 63%
19:00 +18°C° 0 mm 2 mps 630 mmHg 68%
20:00 +17°C° 0 mm 2 mps 630 mmHg 73%
21:00 +16°C° 0 mm 1 mps 630 mmHg 79%
22:00 +16°C° 0 mm 1 mps 629 mmHg 78%
23:00 +15°C° 0 mm 1 mps 629 mmHg 77%

Day after tomorrow, 13 July, Monday

Time Temperature Precipitation Wind Pressure Humidity
00:00 +15°C° 0 mm 1 mps 629 mmHg 76%
01:00 +15°C° 0 mm 1 mps 629 mmHg 76%
02:00 +15°C° 0 mm 1 mps 628 mmHg 76%
03:00 +15°C° 0 mm 1 mps 628 mmHg 75%
04:00 +16°C° 0 mm 1 mps 629 mmHg 71%
05:00 +18°C° 0 mm 1 mps 629 mmHg 67%
06:00 +19°C° 0 mm 1 mps 629 mmHg 63%
07:00 +20°C° 0 mm 1 mps 630 mmHg 59%
08:00 +21°C° 0 mm 2 mps 630 mmHg 55%
09:00 +23°C° 0 mm 2 mps 631 mmHg 51%
10:00 +24°C° 0.1 mm 3 mps 631 mmHg 50%
11:00 +25°C° 0.1 mm 3 mps 631 mmHg 50%
12:00 +26°C° 0.1 mm 3 mps 631 mmHg 49%
13:00 +25°C° 0.4 mm 3 mps 630 mmHg 52%
14:00 +25°C° 0.4 mm 3 mps 630 mmHg 56%
15:00 +24°C° 0.4 mm 3 mps 629 mmHg 59%
16:00 +22°C° 0.7 mm 4 mps 629 mmHg 63%
17:00 +21°C° 0.7 mm 4 mps 629 mmHg 66%
18:00 +20°C° 0.7 mm 5 mps 628 mmHg 70%
19:00 +19°C° 0.2 mm 5 mps 629 mmHg 69%
20:00 +19°C° 0.2 mm 4 mps 629 mmHg 69%
21:00 +18°C° 0.2 mm 4 mps 629 mmHg 68%
22:00 +18°C° 0.1 mm 3 mps 629 mmHg 68%
23:00 +18°C° 0.1 mm 2 mps 629 mmHg 67%

14 July, Tuesday

Time Temperature Precipitation Wind Pressure Humidity
00:00 +19°C° 0.1 mm 1 mps 629 mmHg 66%
01:00 +19°C° 0 mm 1 mps 629 mmHg 65%
02:00 +19°C° 0 mm 1 mps 629 mmHg 64%
03:00 +19°C° 0 mm 1 mps 629 mmHg 63%
04:00 +19°C° 0 mm 1 mps 629 mmHg 61%
05:00 +20°C° 0 mm 1 mps 629 mmHg 59%
06:00 +20°C° 0 mm 1 mps 630 mmHg 58%
07:00 +22°C° 0 mm 1 mps 631 mmHg 54%
08:00 +23°C° 0 mm 2 mps 631 mmHg 51%
09:00 +25°C° 0 mm 2 mps 632 mmHg 47%
10:00 +26°C° 0.1 mm 3 mps 632 mmHg 46%
11:00 +27°C° 0.1 mm 3 mps 632 mmHg 44%
12:00 +28°C° 0.1 mm 3 mps 633 mmHg 42%
13:00 +26°C° 1.4 mm 4 mps 632 mmHg 47%
14:00 +25°C° 1.4 mm 5 mps 631 mmHg 52%
15:00 +22°C° 1.4 mm 5 mps 630 mmHg 57%
16:00 +22°C° 0.8 mm 5 mps 631 mmHg 56%
17:00 +22°C° 0.8 mm 4 mps 631 mmHg 54%
18:00 +22°C° 0.8 mm 3 mps 631 mmHg 53%
19:00 +21°C° 0.2 mm 2 mps 632 mmHg 55%
20:00 +20°C° 0.2 mm 2 mps 632 mmHg 56%
21:00 +21°C° 0.2 mm 1 mps 632 mmHg 58%
22:00 +20°C° 0.4 mm 1 mps 632 mmHg 61%
23:00 +20°C° 0.4 mm 1 mps 632 mmHg 64%

15 July, Wednesday

Time Temperature Precipitation Wind Pressure Humidity
00:00 +19°C° 0.4 mm 1 mps 632 mmHg 67%
01:00 +19°C° 0.2 mm 1 mps 632 mmHg 71%
02:00 +18°C° 0.2 mm 1 mps 632 mmHg 75%
03:00 +18°C° 0.2 mm 1 mps 632 mmHg 78%
04:00 +18°C° 0.1 mm 1 mps 632 mmHg 82%
05:00 +18°C° 0.1 mm 1 mps 633 mmHg 85%
06:00 +18°C° 0.1 mm 1 mps 633 mmHg 89%
07:00 +18°C° 0.1 mm 2 mps 634 mmHg 85%
08:00 +18°C° 0.1 mm 2 mps 634 mmHg 81%
09:00 +19°C° 0.1 mm 2 mps 634 mmHg 77%
10:00 +20°C° 0 mm 3 mps 634 mmHg 72%
11:00 +21°C° 0 mm 3 mps 635 mmHg 67%
12:00 +23°C° 0 mm 4 mps 635 mmHg 62%
13:00 +22°C° 0.1 mm 4 mps 634 mmHg 63%
14:00 +22°C° 0.1 mm 4 mps 634 mmHg 64%
15:00 +22°C° 0.1 mm 4 mps 634 mmHg 66%
16:00 +21°C° 0.2 mm 3 mps 633 mmHg 69%
17:00 +20°C° 0.2 mm 3 mps 633 mmHg 72%
18:00 +19°C° 0.2 mm 3 mps 633 mmHg 76%
19:00 +18°C° 0.1 mm 2 mps 633 mmHg 79%
20:00 +18°C° 0.1 mm 1 mps 633 mmHg 82%
21:00 +16°C° 0.1 mm 1 mps 633 mmHg 85%
22:00 +16°C° 0 mm 1 mps 632 mmHg 85%
23:00 +16°C° 0 mm 1 mps 632 mmHg 84%

16 July, Thursday

Time Temperature Precipitation Wind Pressure Humidity
00:00 +15°C° 0 mm 1 mps 632 mmHg 83%
01:00 +15°C° 0 mm 1 mps 631 mmHg 83%
02:00 +15°C° 0 mm 1 mps 631 mmHg 83%
03:00 +15°C° 0 mm 1 mps 631 mmHg 82%
04:00 +15°C° 0 mm 1 mps 632 mmHg 80%
05:00 +16°C° 0 mm 1 mps 632 mmHg 78%
06:00 +16°C° 0 mm 1 mps 632 mmHg 76%
07:00 +18°C° 0.2 mm 2 mps 633 mmHg 71%
08:00 +19°C° 0.2 mm 2 mps 633 mmHg 66%
09:00 +20°C° 0.2 mm 3 mps 633 mmHg 61%
10:00 +21°C° 0 mm 3 mps 633 mmHg 58%
11:00 +22°C° 0 mm 4 mps 633 mmHg 56%
12:00 +23°C° 0 mm 4 mps 633 mmHg 53%
13:00 +23°C° 0 mm 4 mps 633 mmHg 53%
14:00 +23°C° 0 mm 4 mps 632 mmHg 54%
15:00 +23°C° 0 mm 4 mps 632 mmHg 54%
16:00 +22°C° 0.1 mm 3 mps 631 mmHg 58%
17:00 +21°C° 0.1 mm 2 mps 631 mmHg 63%
18:00 +20°C° 0.1 mm 2 mps 631 mmHg 67%
19:00 +19°C° 0.1 mm 2 mps 631 mmHg 70%
20:00 +18°C° 0.1 mm 2 mps 630 mmHg 73%
21:00 +17°C° 0.1 mm 2 mps 630 mmHg 77%
22:00 +18°C° 0.2 mm 1 mps 630 mmHg 76%
23:00 +18°C° 0.2 mm 1 mps 630 mmHg 75%
Show more